TimeICT,TemperatureF,Dew PointF,Humidity,Sea Level PressureIn,VisibilityMPH,Wind Direction,Wind SpeedMPH,Gust SpeedMPH,PrecipitationIn,Events,Conditions,WindDirDegrees,DateUTC
1:00 AM,72,66,75,29.88,5,North,4.6,,,,Mist,0,2012-11-01 18:00:00
1:00 AM,71.6,66.2,83,29.86,5.0,North,4.6,-,N/A,,Unknown,360,2012-11-01 18:00:00
4:00 AM,71.6,66.2,83,29.83,4.3,North,5.8,-,N/A,,Unknown,10,2012-11-01 21:00:00
5:00 AM,69.8,66.2,88,29.83,4.3,North,4.6,-,N/A,,Unknown,10,2012-11-01 22:00:00
6:00 AM,69.8,66.2,88,29.86,3.7,NNE,3.5,-,N/A,,Unknown,20,2012-11-01 23:00:00
6:30 AM,69.8,66.2,88,29.86,3.7,North,2.3,-,N/A,,Unknown,350,2012-11-01 23:30:00
7:00 AM,70,67,87,29.91,4,NNE,2.3,,,,Mist,20,2012-11-02 00:00:00
7:00 AM,69.8,66.2,88,29.89,3.7,NNE,2.3,-,N/A,,Unknown,20,2012-11-02 00:00:00
8:00 AM,73.4,66.2,78,29.89,3.7,NE,3.5,-,N/A,,Unknown,40,2012-11-02 01:00:00
9:00 AM,77.0,66.2,69,29.89,5.0,NE,3.5,-,N/A,,Unknown,50,2012-11-02 02:00:00
10:00 AM,80.6,66.2,61,29.92,5.6,ESE,3.5,-,N/A,,Unknown,110,2012-11-02 03:00:00
11:00 AM,84.2,69.8,62,29.89,5.6,NNE,2.3,-,N/A,,Unknown,30,2012-11-02 04:00:00
12:00 PM,86.0,68.0,55,29.86,6.2,West,2.3,-,N/A,,Mostly Cloudy,270,2012-11-02 05:00:00
1:00 PM,89,68,41,29.81,6,East,2.3,,,,Scattered Clouds,100,2012-11-02 06:00:00
1:00 PM,89.6,68.0,49,29.80,6.2,East,2.3,-,N/A,,Mostly Cloudy,100,2012-11-02 06:00:00
2:00 PM,87.8,66.2,49,29.77,6.2,NE,2.3,-,N/A,,Mostly Cloudy,40,2012-11-02 07:00:00
3:00 PM,89.6,66.2,46,29.77,6.2,NNE,2.3,-,N/A,,Mostly Cloudy,30,2012-11-02 08:00:00
5:00 PM,87.8,68.0,52,29.77,5.6,NNW,2.3,-,N/A,,Mostly Cloudy,340,2012-11-02 10:00:00
5:30 PM,86.0,68.0,55,29.77,5.6,North,2.3,-,N/A,,Mostly Cloudy,350,2012-11-02 10:30:00
6:00 PM,84.2,68.0,58,29.77,5.0,NW,2.3,-,N/A,,Mostly Cloudy,320,2012-11-02 11:00:00
7:00 PM,83,68,52,29.80,4,NNW,1.2,,,,Haze,330,2012-11-02 12:00:00
7:00 PM,84.2,68.0,58,29.80,4.3,NNW,1.2,-,N/A,,Mostly Cloudy,330,2012-11-02 12:00:00
8:00 PM,80.6,69.8,70,29.83,5.0,North,2.3,-,N/A,,Mostly Cloudy,360,2012-11-02 13:00:00
9:00 PM,80.6,69.8,70,29.83,5.0,Calm,Calm,-,N/A,,Mostly Cloudy,0,2012-11-02 14:00:00
10:00 PM,78.8,69.8,74,29.83,5.0,NNE,2.3,-,N/A,,Unknown,30,2012-11-02 15:00:00
11:00 PM,78.8,69.8,74,29.83,5.0,NNE,2.3,-,N/A,,Unknown,20,2012-11-02 16:00:00